When you browse on this site, cookies collect data to enhance your experience and personalize the content and advertising you see.
Visit our Privacy Policy to learn more. By continuing to use the site, you agree to this use of cookies and data.
  • In Romania
  • List of Countries
  • For 7 days
  • Water Temperature
  • Weather Map
  • Weather Widgets
  • user-avatar
    Login

    Hourly Weather Middlesbrough

    Today, 6 June, Saturday

    Time Temperature Precipitation Wind Pressure Humidity
    00:00 +5°C° 0 mm 9 mps 740 mmHg 88%
    01:00 +5°C° 0.8 mm 8 mps 739 mmHg 90%
    02:00 +5°C° 0.8 mm 8 mps 739 mmHg 92%
    03:00 +6°C° 0.8 mm 7 mps 738 mmHg 93%
    04:00 +6°C° 0.5 mm 8 mps 738 mmHg 92%
    05:00 +7°C° 0.5 mm 9 mps 738 mmHg 90%
    06:00 +7°C° 0.5 mm 9 mps 738 mmHg 89%
    07:00 +7°C° 0.4 mm 10 mps 739 mmHg 88%
    08:00 +7°C° 0.4 mm 11 mps 739 mmHg 88%
    09:00 +7°C° 0.4 mm 12 mps 740 mmHg 87%
    10:00 +8°C° 0.4 mm 12 mps 740 mmHg 85%
    11:00 +9°C° 0.4 mm 11 mps 741 mmHg 83%
    12:00 +11°C° 0.4 mm 11 mps 742 mmHg 80%
    13:00 +11°C° 0.3 mm 11 mps 743 mmHg 78%
    14:00 +11°C° 0.3 mm 11 mps 744 mmHg 75%
    15:00 +12°C° 0.3 mm 10 mps 744 mmHg 73%
    16:00 +11°C° 0.1 mm 9 mps 745 mmHg 74%
    17:00 +11°C° 0.1 mm 8 mps 746 mmHg 74%
    18:00 +11°C° 0.1 mm 7 mps 746 mmHg 75%
    19:00 +10°C° 0 mm 6 mps 747 mmHg 80%
    20:00 +8°C° 0 mm 5 mps 748 mmHg 84%
    21:00 +7°C° 0 mm 4 mps 749 mmHg 89%
    22:00 +7°C° 0 mm 4 mps 749 mmHg 89%
    23:00 +6°C° 0 mm 4 mps 749 mmHg 89%

    Tomorrow, 7 June, Sunday

    Time Temperature Precipitation Wind Pressure Humidity
    00:00 +7°C° 0 mm 3 mps 749 mmHg 89%
    01:00 +7°C° 0.2 mm 4 mps 750 mmHg 91%
    02:00 +7°C° 0.2 mm 4 mps 750 mmHg 92%
    03:00 +8°C° 0.2 mm 4 mps 750 mmHg 93%
    04:00 +8°C° 0.6 mm 5 mps 750 mmHg 94%
    05:00 +8°C° 0.6 mm 6 mps 751 mmHg 94%
    06:00 +9°C° 0.6 mm 7 mps 751 mmHg 95%
    07:00 +9°C° 0.6 mm 7 mps 752 mmHg 94%
    08:00 +9°C° 0.6 mm 8 mps 752 mmHg 94%
    09:00 +8°C° 0.6 mm 9 mps 753 mmHg 93%
    10:00 +8°C° 0.3 mm 9 mps 754 mmHg 92%
    11:00 +8°C° 0.3 mm 9 mps 754 mmHg 91%
    12:00 +8°C° 0.3 mm 9 mps 755 mmHg 90%
    13:00 +8°C° 0.1 mm 9 mps 756 mmHg 87%
    14:00 +10°C° 0.1 mm 9 mps 756 mmHg 85%
    15:00 +10°C° 0.1 mm 9 mps 757 mmHg 82%
    16:00 +10°C° 0 mm 9 mps 757 mmHg 81%
    17:00 +10°C° 0 mm 8 mps 758 mmHg 79%
    18:00 +9°C° 0 mm 8 mps 758 mmHg 77%
    19:00 +9°C° 0 mm 7 mps 759 mmHg 80%
    20:00 +8°C° 0 mm 7 mps 760 mmHg 82%
    21:00 +7°C° 0 mm 6 mps 761 mmHg 84%
    22:00 +5°C° 0 mm 6 mps 761 mmHg 84%
    23:00 +5°C° 0 mm 6 mps 761 mmHg 85%

    Day after tomorrow, 8 June, Monday

    Time Temperature Precipitation Wind Pressure Humidity
    00:00 +5°C° 0 mm 5 mps 761 mmHg 85%
    01:00 +5°C° 0 mm 5 mps 762 mmHg 84%
    02:00 +5°C° 0 mm 5 mps 762 mmHg 83%
    03:00 +5°C° 0 mm 5 mps 762 mmHg 82%
    04:00 +5°C° 0 mm 5 mps 762 mmHg 80%
    05:00 +6°C° 0 mm 5 mps 763 mmHg 78%
    06:00 +7°C° 0 mm 6 mps 763 mmHg 77%
    07:00 +8°C° 0 mm 6 mps 763 mmHg 74%
    08:00 +8°C° 0 mm 6 mps 764 mmHg 71%
    09:00 +9°C° 0 mm 6 mps 764 mmHg 68%
    10:00 +10°C° 0 mm 6 mps 764 mmHg 66%
    11:00 +10°C° 0 mm 5 mps 764 mmHg 65%
    12:00 +10°C° 0 mm 5 mps 764 mmHg 63%
    13:00 +10°C° 0 mm 5 mps 764 mmHg 63%
    14:00 +10°C° 0 mm 5 mps 764 mmHg 63%
    15:00 +12°C° 0 mm 5 mps 765 mmHg 63%
    16:00 +11°C° 0 mm 4 mps 765 mmHg 65%
    17:00 +11°C° 0 mm 4 mps 765 mmHg 66%
    18:00 +10°C° 0 mm 4 mps 765 mmHg 67%
    19:00 +9°C° 0 mm 3 mps 765 mmHg 72%
    20:00 +7°C° 0 mm 3 mps 765 mmHg 77%
    21:00 +6°C° 0 mm 2 mps 766 mmHg 81%
    22:00 +5°C° 0 mm 2 mps 766 mmHg 83%
    23:00 +5°C° 0 mm 2 mps 766 mmHg 85%

    9 June, Tuesday

    Time Temperature Precipitation Wind Pressure Humidity
    00:00 +5°C° 0 mm 2 mps 766 mmHg 86%
    01:00 +4°C° 0 mm 2 mps 766 mmHg 87%
    02:00 +5°C° 0 mm 1 mps 766 mmHg 88%
    03:00 +5°C° 0 mm 1 mps 766 mmHg 88%
    04:00 +6°C° 0 mm 1 mps 766 mmHg 85%
    05:00 +8°C° 0 mm 1 mps 766 mmHg 81%
    06:00 +9°C° 0 mm 1 mps 766 mmHg 78%
    07:00 +11°C° 0 mm 1 mps 766 mmHg 74%
    08:00 +12°C° 0 mm 1 mps 766 mmHg 70%
    09:00 +14°C° 0 mm 1 mps 766 mmHg 66%
    10:00 +14°C° 0 mm 2 mps 765 mmHg 65%
    11:00 +15°C° 0 mm 2 mps 765 mmHg 64%
    12:00 +16°C° 0 mm 2 mps 765 mmHg 63%
    13:00 +16°C° 0 mm 3 mps 765 mmHg 64%
    14:00 +16°C° 0 mm 3 mps 765 mmHg 65%
    15:00 +16°C° 0 mm 3 mps 764 mmHg 66%
    16:00 +16°C° 0 mm 3 mps 764 mmHg 68%
    17:00 +16°C° 0 mm 3 mps 764 mmHg 71%
    18:00 +16°C° 0 mm 3 mps 764 mmHg 74%
    19:00 +14°C° 0 mm 3 mps 764 mmHg 77%
    20:00 +12°C° 0 mm 3 mps 764 mmHg 80%
    21:00 +11°C° 0 mm 3 mps 765 mmHg 84%
    22:00 +11°C° 0 mm 3 mps 765 mmHg 85%
    23:00 +10°C° 0 mm 3 mps 764 mmHg 86%

    10 June, Wednesday

    Time Temperature Precipitation Wind Pressure Humidity
    00:00 +10°C° 0 mm 3 mps 764 mmHg 87%
    01:00 +9°C° 0 mm 3 mps 764 mmHg 88%
    02:00 +9°C° 0 mm 3 mps 764 mmHg 89%
    03:00 +8°C° 0 mm 3 mps 764 mmHg 90%
    04:00 +9°C° 0 mm 3 mps 764 mmHg 88%
    05:00 +10°C° 0 mm 3 mps 764 mmHg 85%
    06:00 +11°C° 0 mm 3 mps 765 mmHg 83%
    07:00 +13°C° 0 mm 3 mps 765 mmHg 78%
    08:00 +14°C° 0 mm 3 mps 765 mmHg 74%
    09:00 +17°C° 0 mm 3 mps 765 mmHg 70%
    10:00 +17°C° 0 mm 3 mps 765 mmHg 70%
    11:00 +17°C° 0 mm 3 mps 765 mmHg 70%
    12:00 +17°C° 0 mm 3 mps 765 mmHg 71%
    13:00 +17°C° 0 mm 3 mps 765 mmHg 72%
    14:00 +18°C° 0 mm 3 mps 765 mmHg 73%
    15:00 +18°C° 0 mm 3 mps 765 mmHg 74%
    16:00 +18°C° 0 mm 3 mps 765 mmHg 75%
    17:00 +18°C° 0 mm 2 mps 765 mmHg 76%
    18:00 +18°C° 0 mm 2 mps 766 mmHg 77%
    19:00 +17°C° 0 mm 2 mps 766 mmHg 82%
    20:00 +15°C° 0 mm 2 mps 766 mmHg 86%
    21:00 +14°C° 0 mm 2 mps 766 mmHg 90%
    22:00 +13°C° 0 mm 2 mps 766 mmHg 90%
    23:00 +13°C° 0 mm 1 mps 766 mmHg 91%

    11 June, Thursday

    Time Temperature Precipitation Wind Pressure Humidity
    00:00 +12°C° 0 mm 1 mps 766 mmHg 92%
    01:00 +12°C° 0 mm 1 mps 766 mmHg 92%
    02:00 +12°C° 0 mm 2 mps 766 mmHg 92%
    03:00 +10°C° 0 mm 2 mps 766 mmHg 92%
    04:00 +12°C° 0 mm 1 mps 766 mmHg 90%
    05:00 +14°C° 0 mm 1 mps 766 mmHg 87%
    06:00 +15°C° 0 mm 1 mps 766 mmHg 85%
    07:00 +16°C° 0 mm 1 mps 766 mmHg 81%
    08:00 +19°C° 0 mm 1 mps 766 mmHg 77%
    09:00 +20°C° 0 mm 1 mps 766 mmHg 73%
    10:00 +21°C° 0 mm 1 mps 766 mmHg 71%
    11:00 +20°C° 0 mm 2 mps 766 mmHg 68%
    12:00 +21°C° 0 mm 2 mps 766 mmHg 65%
    13:00 +21°C° 0 mm 2 mps 765 mmHg 66%
    14:00 +21°C° 0 mm 2 mps 765 mmHg 66%
    15:00 +21°C° 0 mm 3 mps 765 mmHg 67%
    16:00 +21°C° 0 mm 3 mps 765 mmHg 70%
    17:00 +20°C° 0 mm 3 mps 764 mmHg 73%
    18:00 +20°C° 0 mm 3 mps 764 mmHg 76%
    19:00 +18°C° 0 mm 3 mps 764 mmHg 80%
    20:00 +16°C° 0 mm 2 mps 764 mmHg 85%
    21:00 +14°C° 0 mm 2 mps 764 mmHg 90%
    22:00 +14°C° 0 mm 2 mps 764 mmHg 90%
    23:00 +14°C° 0 mm 2 mps 764 mmHg 90%
    Show more